Regional Weather Roundup
Issued by NWS Upton, NY

Current Version | Previous Version | Graphics & Text | Print | Product List | Glossary Off
Versions: 1 2 3 4 5 6 7 8 9 10 11 12 13 14 15 16 17 18 19 20 21 22 23 24 25 26 27 28 29 30

000
ASUS41 KOKX 230308
RWROKX

REGIONAL WEATHER ROUNDUP
NATIONAL WEATHER SERVICE NEW YORK NY
1100 PM EDT SUN OCT 22 2017

NOTE: "FAIR" INDICATES FEW OR NO CLOUDS BELOW 12,000 FEET WITH NO
SIGNIFICANT WEATHER AND/OR OBSTRUCTIONS TO VISIBILITY.

NYZ071-072-176-178-NJZ106-104-230400-
NEW YORK CITY METRO AREA

CITY           SKY/WX    TMP DP  RH WIND       PRES   REMARKS
Central Park   PTCLDY    63  54  72 VRB3      30.40S
Bronx Bot Gard   N/A     59  54  82 E2        30.40S
LaGuardia APRT MOCLDY    64  56  75 S5        30.38R
Kennedy INTL   MOCLDY    60  59  96 CALM      30.39S
Breezy Point     N/A     63 N/A N/A SE6         N/A
Newark/Liberty MOCLDY    63  57  81 S3        30.38S
Teterboro      PTCLDY    60  49  66 CALM      30.37S
$$

NYZ177-179-078>081-230400-
LONG ISLAND NEW YORK

CITY           SKY/WX    TMP DP  RH WIND       PRES   REMARKS
Jones Beach      N/A     63 N/A N/A S5          N/A
Matinecock PT    N/A     59 N/A N/A S2          N/A
Farmingdale    PTCLDY    57  55  93 CALM      30.39S
MacArthur/ISP  MOCLDY    58  56  93 SE3       30.38F
Shirley        PTCLDY    55  52  89 CALM      30.40S
Mt Sinai Harb    N/A    N/A N/A N/A S3          N/A
Westhampton    CLOUDY    44  41  89 CALM      30.41S
East Hampton   FOG       47  46  98 CALM      30.40S VSB 1/2
Montauk          N/A     53  52  96 CALM      30.41F
$$

NYZ052-065-067-230400-
HUDSON VALLEY

CITY           SKY/WX    TMP DP  RH WIND       PRES   REMARKS
White Plains   CLOUDY    54  51  90 CALM      30.38S
Larchmont Harb   N/A     63 N/A N/A CALM        N/A
Croton On Huds   N/A     59 N/A N/A E2          N/A
Newburgh       PTCLDY    63  46  55 VRB6      30.39R
Montgomery     MOCLDY    49  47  93 CALM      30.37R
Poughkeepsie   PTCLDY    50  45  83 CALM      30.36S
Albany         MOCLDY    62  44  51 S10       30.34S
$$

NJZ001-105-106-008-010-013-015-019>022-104-230400-
NEW JERSEY

CITY           SKY/WX    TMP DP  RH WIND       PRES   REMARKS
Newark/Liberty MOCLDY    63  57  81 S3        30.38S
Teterboro      PTCLDY    60  49  66 CALM      30.37S
Caldwell       PTCLDY    54  53  97 CALM      30.39R
Somerville     CLEAR     50  49  96 NW3       30.36S
Linden         FAIR      60  55  83 CALM      30.38S
Perth Amboy      N/A     61 N/A N/A S2          N/A
Sussex         PTCLDY    48  48 100 CALM      30.37S
Andover          N/A     51  50  96 CALM      30.37S
Trenton        MOCLDY    57  48  72 CALM      30.37S
Millville      PTCLDY    57  56  96 CALM      30.35F FOG
Atlantic City  CLEAR     61  60  97 SE6       30.36F
Wrightstown    CLEAR     50  49  94 CALM      30.34F
Toms River       N/A     48  46  93 CALM      30.38S
Belmar         CLOUDY    58  57  97 SE3       30.39S
$$

PAZ047>061-062-071-230400-
EASTERN PENNSYLVANIA

CITY           SKY/WX    TMP DP  RH WIND       PRES   REMARKS
Philadelphia   PTCLDY    59  55  87 CALM      30.35F
Allentown      CLEAR     62  45  53 SE6       30.36S
Scranton       CLEAR     62  46  55 CALM      30.34S
$$

CTZ002-004>006-009-010-012-RIZ004-006-007-MAZ004-011-015-230400-
SOUTHERN NEW ENGLAND
 IN CT

CITY           SKY/WX    TMP DP  RH WIND       PRES   REMARKS
Bradley INTL   PTCLDY    50  47  89 CALM      30.39S
Hartford       CLOUDY    53  50  89 S3        30.39S
Danbury        PTCLDY    49  47  93 CALM      30.40S
Wtrbury/Oxford CLOUDY    53  50  89 CALM      30.40S
Norwalk Harbor   N/A     59 N/A N/A NW2         N/A
Bridgeport     CLOUDY    55  52  89 CALM      30.39S
Meriden        PTCLDY    49  47  93 CALM      30.39S
New Haven      PTCLDY    51  49  92 CALM      30.39F
Chester        FAIR      54  54 100 CALM      30.40S
Groton         PTCLDY    52  50  93 CALM      30.40S
Wilimantic     CLOUDY    51  48  89 CALM      30.41S

 IN RI

CITY           SKY/WX    TMP DP  RH WIND       PRES   REMARKS
Providence     PTCLDY    54  52  93 W3        30.41F
Block Island   PTCLDY    60  59  96 S6        30.41F
Westerly       CLOUDY    52  51  97 CALM      30.41S FOG
 IN MA

CITY           SKY/WX    TMP DP  RH WIND       PRES   REMARKS
Boston         CLOUDY    56  54  93 CALM      30.42S
Worcester      CLEAR     54  51  90 NE5       30.41F
Westfield      CLEAR     49  47  93 CALM      30.39R
Provincetown   CLEAR     57  57 100 S6        30.42S
Nantucket      FOG       55  55 100 S5        30.43S VSB 1/2
$$

ANZ330-335-338-340-345-350-353-355-230400-
COASTAL MARINE OBSERVATIONS


STATION/POSITION TIME  SKY/WX   TEMP    WIND        PRES    VSBY  WAVE
                                AIR SEA DIR/SP/G                  HT/PER
                 (UTC)          (F)     (DEG/KT/KT) (MB)    (MI)  (FT/S)
NY HARB ENTRANCE 0150            65 65  150/  8/  8 1028.0          2/ 9
20 S FIRE ISLAND 0150            64 64  150/  8/ 10 1029.0          2/ 9
GREAT SOUTH BAY  0230            63 63  150/  6/  6   N/A
15 E BARNEGAT LI NOT AVBL
HUDSON CANYON    0150            65 65  130/  8/ 10 1028.3          2/ 8
KINGS POINT      0224            61 66  200/  2/  3 1029.6
EXECUTION ROCKS  0230            63     110/  2/  6   N/A
WESTERN LI SOUND 0219            63     150/  8/  8   N/A           0
CENTRAL LI SOUND NOT AVBL
EASTERN LI SOUND NOT AVBL
ROBBINS REEF     0224            64     150/  8/  9 1029.3
$$


>>>>>>>>>>>>>>>>>>>>>>>>>>>> KEY <<<<<<<<<<<<<<<<<<<<<<<<<<<
>                                                          <
>     SKY/WX - Sky Condition/Present Weather               <
>     TMP    - Temperature in Fahrenheit                   <
>     DP     - Dew Point in Fahrenheit                     <
>     RH     - Relative Humidity in Percent                <
>     WIND   - Direction (from) and Speed in MPH           <
>     PRES   - Mean Sea Level Pressure (inches of Hg)      <
>     WCI    - Wind Chill Index                            <
>     VSB    - VISIBILITY IN MILES                         <
>     HX     - HEAT INDEX                                  <
>     TC     - TEMPERATURE IN CELSIUS                      <
>     VRB    - VARIABLE WIND DIRECTION                     <
>                                                          <
>>>>>>>>>>>>>>>>>>>>>>>>>>>> KEY <<<<<<<<<<<<<<<<<<<<<<<<<<<




USA.gov is the U.S. government's official web portal to all federal, state and local government web resources and services.